Regional Weather Roundup
Issued by NWS

Home | Current Version | Previous Version | Text Only | Print | Product List | Glossary Off
Versions: 1 2 3 4 5 6 7 8 9 10 11 12 13 14 15 16 17 18 19 20 21 22 23 24 25 26 27 28 29 30 31 32 33 34 35 36 37 38 39 40 41 42 43 44 45 46 47 48 49 50

000
ASUS43 KLSX 092157
RWRMO

WEATHER SUMMARY FOR MISSOURI
NATIONAL WEATHER SERVICE SPRINGFIELD MO
400 PM CST TUE FEB 09 2016

NOTE: "FAIR" INDICATES FEW OR NO CLOUDS BELOW 12,000 FEET WITH NO
       SIGNIFICANT WEATHER AND/OR OBSTRUCTIONS TO VISIBILITY.
       CURRENT SKY AND/OR WEATHER CONDITIONS ARE NOT AVAILABLE FOR
       CHILLICOTHE AND FARMINGTON.

MOZ001>031-035>038-043-044-053-054-092300-
...NORTHERN AND WESTERN MISSOURI...

CITY           SKY/WX    TMP DP  RH WIND       PRES   REMARKS
KANSAS CTY INT MOSUNNY   28   4  35 NW18G29   30.20R WCI  15
LEE`S SUMMIT   SUNNY     28   4  35 NW25G32   30.19R WCI  13
ST JOSEPH      SUNNY     27   2  34 NW22G29   30.23R WCI  13
CHILLICOTHE      N/A     27   7  42 NW15G28   30.17R WCI  15

$$
MOZ066>068-077>081-088>096-101>105-092300-
...SOUTHWEST MISSOURI...

CITY           SKY/WX    TMP DP  RH WIND       PRES   REMARKS
SPRINGFIELD    SUNNY     33   8  35 NW20G30   30.12R WCI  21
JOPLIN         SUNNY     36   6  28 NW21G26   30.20R WCI  25

$$
MOZ032>034-039>042-045>050-055>058-069>072-092300-
...CENTRAL MISSOURI...

CITY           SKY/WX    TMP DP  RH WIND       PRES   REMARKS
COLUMBIA       NOT AVBL
JEFFERSON CITY CLOUDY    27  10  49 NW14G24   30.13R WCI  16
ROLLA          CLOUDY    26  11  52 NW14G26   30.06R WCI  14
SEDALIA        SUNNY     29  12  49 NW20G26   30.16R WCI  16

$$
MOZ051-052-059>065-092300-
...EAST CENTRAL MISSOURI...

CITY           SKY/WX    TMP DP  RH WIND       PRES   REMARKS
ST LOUIS INTL  FLURRIES  26  13  57 NW15G25   30.05R WCI  14

$$
MOZ072>076-082>087-097>100-106>115-092300-
...SOUTH CENTRAL AND SOUTHEAST MISSOURI...

CITY           SKY/WX    TMP DP  RH WIND       PRES   REMARKS
CAPE GIRARDEAU NOT AVBL
POPLAR BLUFF   CLOUDY    32  11  41 NW16G25   30.07R WCI  21
WEST PLAINS    SUNNY     33   7  33 NW18G25   30.07R WCI  22

$$


USA.gov is the U.S. government's official web portal to all federal, state and local government web resources and services.